Location: Newark
(25.4800°N, 85.7200°E)
Time: 22:33:36
(UTC+00:00)

Tiros 1 - All Passes

Search period start: 21 August 2019 00:00
Search period end: 31 August 2019 00:00
Orbit: 630 x 664 km, 48.4° (Epoch: 21 August)

Date Brightness Start Highest point End Pass type
(mag) Time Alt. Az. Time Alt. Az. Time Alt. Az.
21 Aug - 00:52:45 10° NNW 00:56:40 25° NE 01:00:35 10° E daylight
21 Aug - 02:34:26 10° WNW 02:38:56 42° SW 02:43:26 10° SSE daylight
21 Aug - 16:40:32 10° SSW 16:45:00 53° SE 16:49:30 10° NE night (unlit)
21 Aug - 18:23:54 10° W 18:27:22 21° NW 18:30:52 10° NNE night (unlit)
21 Aug - 23:38:35 10° N 23:40:02 11° NNE 23:41:28 10° NE daylight
22 Aug - 01:18:14 10° NW 01:22:55 61° NE 01:27:38 10° SE daylight
22 Aug - 03:02:03 10° W 03:04:45 15° SW 03:07:28 10° SSW daylight
22 Aug - 15:26:22 10° SSE 15:29:13 16° SE 15:32:03 10° E night (unlit)
22 Aug - 17:06:32 10° WSW 17:11:02 54° NW 17:15:34 10° NE night (unlit)
23 Aug - 00:02:51 10° NNW 00:06:37 23° NE 00:10:24 10° E daylight
23 Aug - 01:44:24 10° WNW 01:48:56 47° SW 01:53:31 10° SSE daylight
23 Aug - 15:50:37 10° SSW 15:55:02 47° SE 15:59:27 10° ENE night (unlit)
23 Aug - 17:33:43 10° W 17:37:20 22° NW 17:40:58 10° NNE night (unlit)
23 Aug - 22:49:12 10° NNE 22:49:57 10° NNE 22:50:42 10° NE visible
24 Aug - 00:28:16 10° NW 00:32:55 55° NE 00:37:34 10° ESE daylight
24 Aug - 02:11:45 10° W 02:14:47 17° SW 02:17:49 10° SSW daylight
24 Aug - 14:36:45 10° SSE 14:39:15 14° SE 14:41:44 10° E night (unlit)
24 Aug - 16:16:30 10° WSW 16:21:03 60° NW 16:25:36 10° NE night (unlit)
24 Aug - 18:02:51 10° NW 18:03:56 11° NNW 18:05:01 10° NNW night (unlit)
24 Aug - 23:12:59 10° NNW 23:16:35 21° NE 23:20:11 10° E visible
25 Aug - 00:54:21 10° NW 00:58:56 53° SW 01:03:34 10° SSE daylight
25 Aug - 15:00:43 10° SSW 15:05:03 42° SE 15:09:24 10° ENE night (unlit)
25 Aug - 16:43:33 10° W 16:47:18 24° NW 16:51:04 10° NNE night (unlit)
25 Aug - 23:38:19 10° NW 23:42:53 50° NE 23:47:29 10° ESE daylight
26 Aug - 01:21:31 10° W 01:24:48 19° SW 01:28:05 10° S daylight
26 Aug - 13:47:14 10° SSE 13:49:17 13° SE 13:51:20 10° E visible
26 Aug - 15:26:28 10° SW 15:31:03 67° NW 15:35:38 10° NE night (unlit)
26 Aug - 17:12:17 10° NW 17:13:52 12° NNW 17:15:28 10° N night (unlit)
26 Aug - 22:23:07 10° NNW 22:26:32 20° NE 22:29:57 10° E visible
27 Aug - 00:04:20 10° NW 00:08:57 59° SW 00:13:37 10° SSE daylight
27 Aug - 14:10:50 10° SSW 14:15:05 37° SE 14:19:20 10° ENE visible
27 Aug - 15:53:24 10° W 15:57:16 26° NW 16:01:10 10° NNE visible
27 Aug - 22:48:23 10° NNW 22:52:52 45° NE 22:57:23 10° ESE visible
28 Aug - 00:31:19 10° W 00:34:49 21° SW 00:38:20 10° S daylight
28 Aug - 12:57:52 10° SE 12:59:19 11° SE 13:00:46 10° ESE visible
28 Aug - 14:36:26 10° SW 14:41:03 75° NW 14:45:39 10° NE visible
28 Aug - 16:21:51 10° NW 16:23:48 12° NNW 16:25:47 10° N visible
28 Aug - 21:33:16 10° N 21:36:29 18° NNE 21:39:43 10° ENE visible
28 Aug - 23:14:18 10° NW 23:18:57 67° SW 23:23:38 10° SE visible
29 Aug - 13:20:57 10° SSW 13:25:07 33° SE 13:29:16 10° ENE visible
29 Aug - 15:03:15 10° W 15:07:15 29° NW 15:11:15 10° NNE visible
29 Aug - 21:58:27 10° NNW 22:02:51 40° NE 22:07:17 10° ESE visible
29 Aug - 23:41:09 10° WNW 23:44:50 23° SW 23:48:33 10° S daylight
30 Aug - 13:46:25 10° SW 13:51:04 83° NW 13:55:41 10° NE visible
30 Aug - 15:31:28 10° WNW 15:33:45 13° NNW 15:36:01 10° N visible
30 Aug - 20:43:25 10° N 20:46:26 17° NNE 20:49:26 10° ENE visible
30 Aug - 22:24:18 10° NW 22:28:58 74° SW 22:33:39 10° SE visible
